{"data":{"norad_id":49161,"epoch":"2026-05-25T02:53:51.040032Z","epoch_age_seconds":64283,"freshness":"FRESH","line1":"1 49161U 21082AH  26145.12072963  .00002952  00000+0  25493-3 0  9995","line2":"2 49161  69.9986 101.7247 0004023 255.3881 104.6832 14.98357419258508","mean_motion":14.98357419,"eccentricity":0.0004023,"inclination_deg":69.9986,"raan_deg":101.7247,"arg_perigee_deg":255.3881,"mean_anomaly_deg":104.6832,"bstar":0.00025493,"rev_number":25850,"period_min":96.105240427952,"perigee_km":569.17507275261,"apogee_km":574.76712973087,"semimajor_km":6950.1081012417,"source":"CELESTRAK","updated_at":"2026-05-25T13:38:16.790553Z"}}